Find Starlink 6356

NORAD ID: 57363 Int'l Des: 2023-099 Owner: SPXS Country: US Constellation: starlink operational
LEOCIRCULAR

Aktuelle Ansicht

3D-Globus wird geladen...

Über Starlink 6356

Beschreibung wird geladen...

Nächste Überflüge

Passes for default location (London). Set your location on the main map for personalized predictions.

Höhenverlauf

Loading altitude history...

Zweizeiliger Elementsatz

1 57363U 23099AM 26150.03041113 .00000499 00000-0 27647-4 0 9996
2 57363 43.0022 141.9412 0001423 305.7967 54.2753 15.27576894158640
Epoch: 30. Mai 2026 • Age: 12 hours

Aktueller Status

Höhe 491.0 km
Geschwindigkeit 7.62 km/s
Subsatellitenpunkt -32.24°S, 12.81°E
Startdatum 16. Juli 2023
Alter 2.8 years
Typ internet

Technische Details

Klassifizierung Payload
Masse 305.00 kg
Trockenmasse 290.00 kg
Gesamtmasse 305.00 kg
Länge 0.20 m
Durchmesser 2.80 m
Spannweite 9.00 m
Form Box + pan
Hersteller SPXS
Bus-Typ Starlink
Phasenstatus In Orbit
Besitzer/Staat SPXS/US

Most Searched